TimeEST,TemperatureF,Dew PointF,Humidity,Sea Level PressureIn,VisibilityMPH,Wind Direction,Wind SpeedMPH,Gust SpeedMPH,PrecipitationIn,Events,Conditions,WindDirDegrees,DateUTC
12:15 AM,33.8,17.6,52,30.01,10.0,Calm,Calm,-,N/A,,Clear,0,2013-02-25 05:15:00
12:35 AM,30.2,17.6,60,30.01,10.0,North,3.5,-,N/A,,Clear,10,2013-02-25 05:35:00
12:55 AM,30.2,17.6,60,30.01,10.0,NNE,3.5,-,N/A,,Clear,30,2013-02-25 05:55:00
1:15 AM,28.4,17.6,64,30.01,10.0,NE,4.6,-,N/A,,Clear,40,2013-02-25 06:15:00
1:35 AM,28.4,17.6,64,30.02,10.0,Calm,Calm,-,N/A,,Clear,0,2013-02-25 06:35:00
1:55 AM,28.4,19.4,69,30.03,10.0,Calm,Calm,-,N/A,,Clear,0,2013-02-25 06:55:00
2:15 AM,28.4,19.4,69,30.01,10.0,East,3.5,-,N/A,,Clear,80,2013-02-25 07:15:00
2:35 AM,28.4,19.4,69,30.02,10.0,Calm,Calm,-,N/A,,Clear,0,2013-02-25 07:35:00
2:55 AM,26.6,19.4,74,30.03,10.0,East,3.5,-,N/A,,Clear,80,2013-02-25 07:55:00
3:15 AM,26.6,19.4,74,30.01,10.0,ENE,4.6,-,N/A,,Clear,70,2013-02-25 08:15:00
3:35 AM,26.6,19.4,74,30.01,10.0,ENE,5.8,-,N/A,,Clear,70,2013-02-25 08:35:00
3:55 AM,26.6,19.4,74,30.02,10.0,ENE,3.5,-,N/A,,Clear,70,2013-02-25 08:55:00
4:15 AM,26.6,19.4,74,30.01,10.0,Calm,Calm,-,N/A,,Clear,0,2013-02-25 09:15:00
4:35 AM,26.6,19.4,74,30.01,10.0,ENE,3.5,-,N/A,,Clear,60,2013-02-25 09:35:00
4:55 AM,26.6,19.4,74,30.02,10.0,ENE,4.6,-,N/A,,Clear,70,2013-02-25 09:55:00
5:15 AM,26.6,19.4,74,30.02,10.0,ENE,4.6,-,N/A,,Clear,70,2013-02-25 10:15:00
5:35 AM,26.6,19.4,74,30.02,10.0,Calm,Calm,-,N/A,,Clear,0,2013-02-25 10:35:00
5:55 AM,26.6,21.2,80,30.00,10.0,ENE,4.6,-,N/A,,Clear,70,2013-02-25 10:55:00
6:15 AM,26.6,19.4,74,30.01,10.0,Calm,Calm,-,N/A,,Clear,0,2013-02-25 11:15:00
6:35 AM,24.8,21.2,86,30.02,10.0,ENE,3.5,-,N/A,,Clear,70,2013-02-25 11:35:00
6:55 AM,26.6,19.4,74,30.02,10.0,Calm,Calm,-,N/A,,Clear,0,2013-02-25 11:55:00
7:15 AM,26.6,19.4,74,30.03,10.0,NE,5.8,-,N/A,,Clear,40,2013-02-25 12:15:00
7:35 AM,24.8,21.2,86,30.02,10.0,ENE,4.6,-,N/A,,Clear,70,2013-02-25 12:35:00
7:55 AM,26.6,21.2,80,30.02,10.0,ENE,3.5,-,N/A,,Clear,70,2013-02-25 12:55:00
8:15 AM,26.6,23.0,86,30.03,10.0,East,4.6,-,N/A,,Clear,80,2013-02-25 13:15:00
8:35 AM,28.4,21.2,74,30.04,10.0,Calm,Calm,-,N/A,,Clear,0,2013-02-25 13:35:00
8:55 AM,28.4,21.2,74,30.04,10.0,ENE,3.5,-,N/A,,Clear,70,2013-02-25 13:55:00
9:15 AM,30.2,21.2,69,30.03,10.0,Variable,3.5,-,N/A,,Clear,0,2013-02-25 14:15:00
9:35 AM,30.2,21.2,69,30.02,10.0,Variable,3.5,-,N/A,,Clear,0,2013-02-25 14:35:00
9:55 AM,30.2,23.0,75,30.03,10.0,Variable,4.6,-,N/A,,Clear,0,2013-02-25 14:55:00
10:15 AM,32.0,23.0,69,30.03,10.0,Variable,4.6,-,N/A,,Clear,0,2013-02-25 15:15:00
10:35 AM,33.8,23.0,65,30.03,10.0,NE,4.6,-,N/A,,Clear,50,2013-02-25 15:35:00
10:55 AM,35.6,23.0,60,30.03,10.0,Calm,Calm,-,N/A,,Clear,0,2013-02-25 15:55:00
11:15 AM,37.4,23.0,56,30.03,10.0,Variable,4.6,-,N/A,,Clear,0,2013-02-25 16:15:00
11:35 AM,39.2,23.0,52,30.03,10.0,Calm,Calm,-,N/A,,Clear,0,2013-02-25 16:35:00
11:55 AM,42.8,21.2,42,30.03,6.0,East,5.8,-,N/A,,Clear,80,2013-02-25 16:55:00
12:15 PM,42.8,21.2,42,30.01,10.0,East,5.8,-,N/A,,Clear,80,2013-02-25 17:15:00
12:35 PM,44.6,21.2,39,30.00,10.0,Calm,Calm,-,N/A,,Clear,0,2013-02-25 17:35:00
12:55 PM,44.6,21.2,39,29.99,10.0,Calm,Calm,-,N/A,,Clear,0,2013-02-25 17:55:00
1:15 PM,44.6,21.2,39,29.99,10.0,Calm,Calm,-,N/A,,Clear,0,2013-02-25 18:15:00
1:35 PM,44.6,21.2,39,29.98,10.0,Calm,Calm,-,N/A,,Clear,0,2013-02-25 18:35:00
1:55 PM,46.4,21.2,37,29.97,10.0,Calm,Calm,-,N/A,,Clear,0,2013-02-25 18:55:00
2:15 PM,46.4,21.2,37,29.98,10.0,ESE,4.6,-,N/A,,Clear,120,2013-02-25 19:15:00
2:35 PM,48.2,21.2,34,29.96,10.0,Calm,Calm,-,N/A,,Clear,0,2013-02-25 19:35:00
2:55 PM,50.0,21.2,32,29.96,10.0,Variable,5.8,-,N/A,,Clear,0,2013-02-25 19:55:00
3:15 PM,50.0,21.2,32,29.96,10.0,Calm,Calm,-,N/A,,Clear,0,2013-02-25 20:15:00
3:35 PM,50.0,21.2,32,29.96,10.0,Calm,Calm,-,N/A,,Clear,0,2013-02-25 20:35:00
3:55 PM,48.2,23.0,37,29.96,10.0,ENE,4.6,-,N/A,,Clear,70,2013-02-25 20:55:00
4:35 PM,48.2,24.8,40,29.95,10.0,East,3.5,-,N/A,,Clear,90,2013-02-25 21:35:00
4:55 PM,48.2,23.0,37,29.95,10.0,Variable,3.5,-,N/A,,Clear,0,2013-02-25 21:55:00
5:15 PM,46.4,24.8,43,29.95,10.0,Calm,Calm,-,N/A,,Clear,0,2013-02-25 22:15:00
5:35 PM,46.4,24.8,43,29.96,10.0,Variable,3.5,-,N/A,,Clear,0,2013-02-25 22:35:00
5:55 PM,42.8,26.6,53,29.95,10.0,Variable,4.6,-,N/A,,Clear,0,2013-02-25 22:55:00
6:15 PM,42.8,24.8,49,29.95,10.0,East,4.6,-,N/A,,Clear,100,2013-02-25 23:15:00
6:35 PM,39.2,24.8,56,29.95,10.0,East,3.5,-,N/A,,Clear,100,2013-02-25 23:35:00
6:55 PM,39.2,24.8,56,29.95,10.0,Variable,5.8,-,N/A,,Clear,0,2013-02-25 23:55:00
7:15 PM,37.4,24.8,60,29.95,10.0,East,3.5,-,N/A,,Clear,100,2013-02-26 00:15:00
7:35 PM,37.4,24.8,60,29.94,10.0,ESE,5.8,-,N/A,,Clear,120,2013-02-26 00:35:00
7:55 PM,35.6,24.8,65,29.94,10.0,Calm,Calm,-,N/A,,Clear,0,2013-02-26 00:55:00
8:15 PM,37.4,24.8,60,29.93,10.0,Variable,3.5,-,N/A,,Clear,0,2013-02-26 01:15:00
8:35 PM,35.6,23.0,60,29.92,10.0,Variable,5.8,-,N/A,,Clear,0,2013-02-26 01:35:00
8:55 PM,35.6,24.8,65,29.92,10.0,Variable,4.6,-,N/A,,Clear,0,2013-02-26 01:55:00
9:15 PM,35.6,24.8,65,29.92,10.0,Variable,6.9,-,N/A,,Clear,0,2013-02-26 02:15:00
9:55 PM,35.6,24.8,65,29.93,10.0,NE,5.8,-,N/A,,Clear,50,2013-02-26 02:55:00
10:15 PM,35.6,24.8,65,29.92,10.0,ESE,11.5,-,N/A,,Clear,110,2013-02-26 03:15:00
10:35 PM,35.6,24.8,65,29.91,10.0,ESE,11.5,28.8,N/A,,Clear,110,2013-02-26 03:35:00
10:55 PM,33.8,24.8,70,29.92,10.0,ESE,12.7,24.2,N/A,,Clear,120,2013-02-26 03:55:00